Temp
-13 -13 -13 -13 -13 -12 -12 -12 -12 -12 -11 -12 -12 -12 -12 -12 -12 -12 -13 -13 -12 -12 -12 -12 -12 -12 -13 -13 -13 -12 -12 -12 -12 -13 -13 -14 -14 -14 -15 -15 -15 -15 -14 -13
-13 -13 -13 -13 -13 -13 -13 -12 -12 -12 -12 -12 -12 -12 -13 -13 -13 -13 -12 -12 -12 -12 -12 -12 -12 -13 -13 -13 -13 -12 -12 -12 -13 -13 -13 -14 -15 -15 -15 -16 -16 -16 -16 -15
-14 -14 -14 -14 -14 -13 -13 -13 -12 -13 -13 -13 -13 -13 -13 -13 -13 -13 -13 -13 -13 -13 -12 -12 -13 -13 -13 -13 -13 -13 -13 -13 -13 -13 -14 -14 -15 -15 -16 -17 -17 -17 -16 -16
-14 -14 -14 -14 -13 -13 -13 -13 -13 -13 -13 -13 -13 -13 -13 -13 -13 -13 -13 -13 -13 -12 -12 -13 -13 -13 -13 -13 -14 -13 -13 -13 -13 -14 -15 -16 -17 -17 -18 -18 -18 -18 -18 -17
-14 -14 -14 -13 -14 -14 -14 -14 -14 -13 -13 -13 -13 -13 -13 -13 -13 -13 -13 -13 -13 -13 -13 -13 -13 -13 -13 -13 -13 -13 -13 -13 -13 -14 -14 -17 -19 -20 -20 -20 -19 -19 -18 -18
-14 -14 -14 -14 -14 -14 -14 -14 -14 -13 -13 -13 -13 -13 -13 -13 -13 -13 -13 -13 -13 -13 -13 -13 -13 -13 -13 -13 -13 -13 -13 -14 -14 -14 -14 -16 -20 -21 -21 -21 -20 -19 -19 -19
-14 -14 -14 -14 -14 -14 -14 -14 -13 -13 -13 -13 -13 -13 -13 -13 -13 -13 -13 -13 -13 -13 -13 -13 -13 -13 -13 -14 -14 -14 -14 -14 -14 -14 -14 -16 -18 -21 -21 -21 -20 -20 -20 -19
-14 -14 -14 -14 -14 -14 -13 -13 -13 -13 -13 -13 -13 -13 -13 -13 -13 -13 -13 -13 -13 -13 -13 -13 -13 -13 -13 -13 -14 -14 -14 -14 -14 -15 -14 -15 -16 -19 -21 -21 -21 -20 -20 -20
-14 -14 -14 -14 -14 -14 -14 -14 -14 -13 -13 -13 -13 -13 -13 -13 -13 -13 -13 -13 -13 -13 -13 -13 -13 -13 -13 -14 -14 -14 -14 -14 -14 -14 -15 -14 -16 -17 -19 -21 -21 -21 -20 -20
-14 -14 -14 -14 -13 -13 -13 -13 -14 -14 -13 -13 -13 -13 -13 -13 -13 -13 -13 -13 -13 -13 -13 -13 -13 -14 -14 -14 -14 -14 -14 -14 -14 -14 -15 -15 -15 -17 -18 -20 -21 -20 -20 -20
-13 -13 -13 -13 -13 -13 -13 -13 -13 -13 -13 -13 -13 -13 -13 -13 -13 -13 -13 -13 -13 -13 -13 -13 -13 -13 -13 -14 -14 -14 -14 -14 -15 -15 -15 -15 -15 -16 -17 -18 -18 -19 -19 -19
-13 -13 -13 -13 -13 -13 -12 -12 -13 -13 -12 -12 -12 -13 -12 -12 -13 -13 -13 -13 -13 -13 -13 -13 -13 -13 -13 -14 -14 -14 -14 -14 -14 -15 -15 -15 -16 -16 -16 -17 -18 -18 -18 -18
-13 -13 -13 -13 -13 -13 -13 -13 -13 -13 -13 -13 -12 -12 -12 -12 -13 -13 -13 -13 -13 -13 -13 -13 -14 -14 -14 -14 -14 -14 -14 -14 -14 -15 -15 -15 -15 -16 -16 -16 -16 -16 -16 -17
-13 -13 -13 -13 -13 -13 -13 -13 -13 -13 -13 -12 -13 -12 -13 -12 -13 -13 -13 -13 -13 -13 -13 -13 -13 -14 -14 -14 -14 -14 -14 -15 -15 -15 -15 -15 -15 -15 -15 -16 -16 -16 -16 -16
-13 -13 -13 -13 -13 -13 -13 -13 -13 -13 -13 -12 -13 -12 -13 -13 -13 -13 -13 -13 -13 -13 -13 -13 -14 -14 -14 -14 -14 -14 -14 -14 -15 -15 -15 -15 -15 -15 -15 -15 -15 -15 -16 -16
-12 -12 -12 -12 -13 -13 -12 -13 -13 -13 -13 -13 -13 -13 -12 -12 -12 -13 -13 -13 -13 -13 -13 -13 -13 -13 -13 -13 -13 -13 -13 -13 -13 -13 -14 -14 -14 -14 -15 -15 -15 -15 -15 -15
-13 -13 -13 -12 -12 -12 -12 -13 -13 -13 -13 -13 -13 -13 -12 -13 -13 -13 -13 -12 -13 -12 -12 -12 -12 -12 -12 -12 -12 -12 -12 -12 -13 -13 -13 -13 -13 -13 -13 -14 -14 -14 -14 -15
-12 -12 -12 -12 -12 -12 -12 -12 -12 -12 -12 -11 -11 -12 -11 -11 -12 -12 -10 -11 -11 -11 -11 -11 -11 -12 -12 -12 -12 -12 -12 -12 -12 -12 -12 -13 -13 -13 -13 -13 -13 -14 -14 -14
-12 -12 -11 -11 -11 -11 -12 -12 -10 -11 -12 -10 -10 -10 -10 -10 -10 -11 -10 -10 -10 -11 -11 -11 -11 -11 -11 -12 -12 -12 -12 -12 -12 -13 -13 -13 -13 -13 -13 -13 -13 -13 -14 -14
-12 -12 -11 -11 -10 -9 -12 -12 -11 -10 -10 -10 -10 -10 -10 -10 -10 -10 -10 -10 -10 -10 -11 -11 -11 -11 -11 -12 -12 -12 -12 -12 -12 -13 -13 -13 -13 -13 -13 -13 -14 -14 -14 -14
-12 -12 -12 -12 -11 -11 -12 -11 -12 -11 -10 -10 -10 -10 -10 -10 -10 -10 -10 -10 -10 -10 -10 -10 -11 -11 -11 -11 -12 -12 -12 -12 -12 -12 -12 -13 -13 -13 -13 -14 -14 -14 -14 -14
-12 -12 -12 -12 -12 -12 -12 -12 -12 -11 -11 -11 -10 -10 -11 -11 -11 -11 -11 -10 -10 -10 -10 -10 -10 -10 -11 -11 -11 -11 -12 -12 -12 -12 -13 -13 -13 -14 -14 -14 -14 -15 -15 -15
-12 -12 -12 -12 -12 -12 -12 -13 -12 -12 -11 -11 -11 -11 -10 -11 -11 -11 -11 -11 -11 -11 -11 -11 -11 -11 -11 -11 -12 -12 -12 -12 -13 -13 -13 -13 -14 -14 -14 -14 -15 -15 -16 -16
-12 -13 -12 -11 -12 -13 -12 -12 -12 -12 -12 -12 -12 -11 -11 -11 -11 -11 -12 -12 -12 -12 -12 -12 -12 -12 -13 -12 -12 -13 -13 -13 -13 -13 -13 -14 -14 -14 -14 -15 -15 -16 -16 -17
-13 -13 -12 -10 -12 -11 -11 -12 -13 -12 -12 -11 -11 -11 -11 -11 -11 -12 -12 -12 -13 -13 -13 -13 -13 -13 -13 -13 -13 -13 -13 -13 -14 -14 -14 -14 -14 -14 -15 -15 -16 -16 -17 -17
-13 -14 -12 -11 -11 -10 -10 -12 -12 -12 -11 -11 -11 -11 -11 -11 -11 -12 -12 -12 -13 -12 -13 -13 -12 -13 -14 -14 -14 -15 -15 -15 -14 -15 -15 -14 -15 -15 -16 -16 -16 -17 -17 -18
Height
5784 5785 5786 5786 5786 5786 5786 5785 5784 5782 5782 5781 5779 5777 5774 5771 5769 5766 5763 5760 5757 5754 5751 5747 5743 5738 5734 5731 5726 5719 5713 5702 5695 5688 5684 5680 5676 5675 5676 5676 5679 5681 5685 5691
5782 5782 5782 5782 5781 5781 5780 5780 5778 5777 5776 5775 5773 5771 5769 5768 5765 5762 5759 5756 5752 5748 5745 5742 5738 5734 5729 5725 5719 5711 5703 5693 5683 5676 5669 5663 5656 5653 5652 5653 5657 5662 5666 5672
5777 5778 5777 5777 5776 5776 5775 5774 5773 5773 5771 5770 5769 5768 5765 5763 5760 5757 5755 5752 5750 5745 5741 5739 5735 5730 5726 5720 5713 5706 5697 5686 5675 5667 5654 5640 5630 5625 5625 5628 5634 5640 5648 5656
5775 5775 5774 5774 5773 5773 5771 5770 5770 5769 5769 5768 5766 5765 5760 5758 5756 5755 5753 5751 5747 5743 5739 5735 5732 5728 5723 5716 5709 5701 5691 5680 5668 5655 5636 5617 5601 5595 5598 5604 5611 5620 5632 5641
5773 5772 5771 5771 5771 5770 5769 5769 5768 5768 5767 5765 5763 5761 5757 5755 5755 5754 5752 5750 5746 5741 5737 5734 5731 5727 5721 5714 5706 5697 5686 5673 5660 5645 5625 5601 5582 5577 5580 5588 5596 5604 5617 5630
5770 5770 5770 5770 5770 5770 5769 5768 5767 5766 5765 5763 5760 5758 5756 5754 5753 5752 5751 5748 5745 5741 5738 5734 5730 5724 5718 5710 5703 5693 5682 5669 5655 5639 5619 5594 5576 5571 5574 5579 5587 5595 5608 5619
5771 5771 5771 5770 5770 5769 5768 5767 5766 5765 5763 5762 5760 5758 5756 5754 5753 5752 5751 5747 5745 5741 5737 5733 5728 5722 5715 5707 5699 5689 5679 5667 5654 5638 5618 5597 5577 5569 5571 5576 5584 5592 5602 5610
5771 5772 5771 5770 5769 5769 5767 5766 5765 5762 5761 5760 5759 5759 5758 5756 5754 5752 5749 5747 5744 5741 5736 5731 5725 5719 5712 5705 5697 5688 5678 5667 5655 5641 5624 5606 5588 5572 5571 5578 5585 5592 5599 5606
5772 5772 5771 5770 5769 5768 5766 5765 5764 5761 5759 5759 5759 5759 5757 5755 5753 5751 5748 5745 5742 5738 5733 5728 5722 5716 5710 5703 5695 5686 5677 5668 5658 5646 5632 5616 5602 5588 5578 5582 5588 5592 5599 5604
5773 5772 5771 5770 5769 5768 5766 5765 5764 5761 5759 5758 5758 5757 5756 5754 5752 5749 5746 5742 5738 5734 5730 5724 5719 5713 5707 5701 5694 5686 5677 5668 5659 5649 5638 5626 5612 5603 5595 5591 5594 5597 5601 5604
5772 5772 5772 5770 5768 5767 5766 5764 5762 5760 5759 5758 5757 5757 5754 5751 5749 5746 5742 5739 5735 5731 5726 5720 5715 5710 5704 5699 5692 5685 5677 5669 5661 5653 5644 5634 5625 5615 5608 5605 5603 5604 5605 5607
5772 5770 5769 5768 5767 5765 5763 5762 5760 5759 5759 5756 5755 5755 5751 5749 5746 5742 5738 5735 5731 5727 5722 5717 5712 5708 5702 5696 5690 5683 5676 5669 5662 5655 5648 5640 5633 5627 5620 5615 5613 5613 5615 5617
5771 5770 5768 5767 5766 5764 5762 5760 5759 5757 5755 5754 5751 5751 5746 5744 5742 5738 5735 5732 5728 5723 5719 5714 5709 5704 5699 5693 5688 5682 5676 5670 5664 5657 5650 5644 5639 5634 5630 5626 5624 5622 5622 5622
5770 5769 5768 5767 5765 5763 5761 5759 5757 5755 5753 5751 5750 5748 5742 5739 5737 5734 5731 5728 5723 5719 5715 5711 5706 5701 5696 5691 5685 5680 5675 5669 5664 5658 5652 5647 5642 5638 5634 5632 5630 5629 5628 5627
5769 5767 5765 5763 5761 5760 5759 5756 5754 5752 5749 5747 5746 5742 5738 5734 5732 5729 5726 5722 5717 5713 5709 5705 5701 5696 5692 5687 5682 5677 5672 5667 5662 5657 5653 5648 5644 5641 5638 5635 5632 5631 5629 5628
5765 5764 5762 5761 5757 5755 5755 5751 5748 5746 5743 5740 5739 5738 5730 5730 5726 5724 5720 5717 5712 5707 5703 5699 5695 5692 5688 5684 5679 5674 5669 5664 5660 5656 5652 5648 5644 5640 5638 5635 5633 5631 5629 5627
5759 5757 5754 5755 5753 5750 5750 5746 5742 5739 5736 5731 5730 5728 5725 5723 5719 5717 5712 5710 5706 5702 5698 5694 5691 5687 5684 5680 5676 5672 5668 5664 5660 5656 5652 5649 5645 5642 5638 5636 5633 5630 5628 5626
5753 5750 5747 5746 5745 5743 5741 5738 5734 5731 5730 5723 5722 5719 5715 5713 5712 5708 5705 5705 5700 5697 5694 5690 5687 5683 5679 5675 5671 5668 5664 5661 5657 5654 5651 5648 5645 5641 5638 5634 5631 5627 5624 5622
5745 5741 5737 5735 5735 5735 5735 5731 5727 5723 5724 5719 5717 5714 5712 5709 5708 5704 5700 5698 5695 5691 5687 5684 5681 5677 5674 5670 5666 5662 5658 5655 5652 5648 5645 5642 5639 5635 5632 5630 5627 5624 5620 5617
5736 5733 5732 5729 5726 5726 5726 5723 5720 5717 5715 5711 5709 5708 5705 5702 5701 5699 5694 5691 5688 5685 5681 5677 5674 5670 5667 5663 5660 5657 5653 5650 5646 5642 5638 5635 5631 5629 5625 5623 5619 5616 5612 5609
5730 5725 5725 5720 5715 5722 5720 5711 5707 5708 5708 5702 5700 5699 5695 5693 5690 5690 5686 5683 5680 5677 5674 5670 5666 5662 5659 5656 5653 5649 5646 5642 5639 5634 5630 5626 5623 5619 5616 5612 5609 5606 5602 5598
5722 5718 5717 5713 5711 5709 5706 5702 5700 5696 5694 5692 5689 5688 5684 5682 5680 5676 5674 5672 5669 5667 5663 5660 5657 5653 5649 5645 5642 5639 5635 5631 5628 5623 5620 5617 5613 5610 5606 5602 5599 5595 5591 5587
5712 5712 5706 5706 5703 5701 5694 5691 5688 5683 5680 5682 5678 5675 5670 5670 5668 5666 5663 5659 5656 5654 5652 5649 5646 5642 5637 5634 5631 5628 5622 5620 5618 5613 5609 5606 5602 5598 5594 5590 5587 5583 5578 5574
5702 5700 5698 5693 5697 5689 5681 5682 5681 5675 5670 5668 5666 5663 5659 5656 5653 5652 5650 5647 5643 5640 5638 5635 5633 5631 5627 5622 5620 5617 5612 5608 5605 5601 5597 5594 5590 5586 5582 5579 5575 5570 5566 5561
5693 5692 5687 5675 5679 5672 5672 5672 5668 5664 5660 5655 5652 5649 5648 5646 5643 5638 5636 5633 5629 5626 5624 5620 5618 5616 5614 5609 5607 5603 5598 5595 5592 5588 5584 5580 5576 5573 5569 5566 5561 5558 5553 5548
5677 5679 5671 5664 5661 5654 5655 5657 5654 5651 5648 5643 5639 5638 5635 5630 5628 5626 5624 5619 5614 5611 5607 5604 5601 5599 5597 5594 5590 5587 5584 5581 5578 5574 5570 5566 5562 5558 5555 5551 5547 5543 5539 5534
Wind_Speed
29 29 30 30 30 32 35 34 32 31 29 29 31 33 35 35 32 27 28 30 32 35 37 36 32 33 34 36 39 42 47 48 50 52 56 59 60 63 63 61 62 68 74 73
28 31 32 32 31 28 27 26 26 27 29 30 30 27 20 20 23 26 29 30 29 23 22 22 26 26 26 31 36 36 42 45 44 46 51 52 55 62 66 70 71 65 62 65
26 25 24 22 21 22 23 25 27 27 28 21 11 14 18 20 23 26 21 19 18 20 23 23 27 26 29 28 32 33 35 37 36 41 53 61 66 68 66 68 68 70 69 64
16 17 18 19 21 22 24 25 21 11 10 10 12 15 20 21 17 13 12 10 12 17 14 13 18 21 26 28 28 32 34 36 35 43 43 45 49 52 58 64 63 65 65 64
15 16 18 18 15 9 6 5 8 7 8 11 12 14 14 9 7 3 7 11 15 20 19 18 20 22 25 27 32 37 40 37 40 42 45 43 33 34 39 50 54 57 60 61
6 5 3 3 3 3 2 4 6 8 8 9 9 5 2 6 7 9 7 10 14 17 19 21 24 26 29 30 34 38 40 46 46 46 50 51 29 18 19 37 35 46 49 52
4 2 2 2 2 3 4 6 7 8 8 6 2 5 9 12 8 6 7 11 13 16 18 20 24 26 29 32 35 38 41 44 50 52 51 52 39 12 15 17 23 28 34 43
2 1 1 4 5 7 9 8 9 9 8 7 8 6 4 3 3 5 7 10 15 18 22 24 26 28 29 32 34 35 37 40 45 49 55 48 50 26 17 12 14 18 22 30
0 1 3 3 4 6 6 7 7 7 8 10 8 4 3 3 5 9 13 16 19 23 27 28 29 29 29 30 32 35 35 37 40 44 48 48 47 45 17 15 7 10 13 20
6 5 4 4 4 5 6 7 7 8 6 6 9 7 8 9 11 14 17 22 26 28 31 30 29 30 30 31 30 31 33 34 35 39 43 47 42 39 38 16 6 8 7 11
5 5 5 5 5 6 6 7 8 8 6 6 8 10 12 16 17 20 23 26 27 28 28 29 28 28 27 28 29 29 30 31 32 32 35 37 40 40 29 28 25 16 14 11
5 5 5 5 6 7 8 8 9 9 9 12 13 13 17 18 20 23 25 25 24 24 24 26 26 25 26 26 26 27 28 28 29 30 30 30 30 31 35 23 16 13 10 15
3 5 5 6 6 6 7 8 9 10 11 13 15 14 17 16 17 19 20 23 24 24 26 26 27 27 27 27 26 25 24 25 26 27 27 26 25 24 22 23 22 19 11 2
5 5 6 7 8 8 8 10 11 11 13 13 12 11 21 21 20 21 23 24 25 26 27 27 27 27 28 28 27 26 24 23 23 24 24 24 23 21 19 17 15 12 10 8
9 9 10 12 15 11 13 16 20 19 21 20 17 18 23 24 23 25 25 27 28 28 29 28 27 28 28 25 26 25 24 23 24 23 22 22 22 20 18 16 14 12 10 9
15 14 17 14 20 23 20 24 26 26 29 28 27 23 31 27 29 29 30 30 28 30 29 29 27 26 23 20 19 19 20 20 21 23 22 21 20 18 17 16 16 15 14 12
22 23 26 20 23 25 25 28 33 31 30 35 34 33 33 32 34 32 34 27 28 28 27 25 18 18 18 16 16 17 18 19 20 22 22 22 22 21 19 19 18 16 15 15
29 30 31 29 28 24 25 27 30 31 30 34 29 29 32 32 28 26 26 25 28 25 25 21 17 15 14 14 14 15 15 15 17 17 18 19 21 22 23 24 24 23 23 22
34 35 35 31 30 27 24 23 28 31 27 29 30 29 29 29 29 30 31 28 25 26 25 21 22 21 19 20 19 19 20 21 20 20 20 21 20 21 25 27 26 25 25 26
30 32 33 33 33 29 29 30 26 26 31 33 32 29 29 31 33 32 36 35 31 31 29 28 30 31 30 30 30 29 28 28 28 26 27 25 26 28 26 30 32 35 32 31
34 35 34 36 41 32 32 40 40 33 37 36 37 35 34 37 39 37 35 39 41 40 40 38 36 36 39 39 39 39 38 38 36 35 35 34 34 34 34 33 35 37 40 39
37 38 37 40 40 40 39 41 42 44 43 43 43 39 38 37 35 37 37 36 37 38 38 41 40 40 40 41 41 41 42 41 35 36 37 36 36 37 38 38 37 37 41 41
41 39 44 42 43 40 42 41 43 46 45 40 40 41 46 45 43 41 38 38 38 39 39 40 38 38 41 42 41 40 42 42 40 41 40 39 39 41 42 42 43 42 44 44
42 41 44 46 41 44 49 47 43 44 47 46 43 41 41 41 42 44 43 42 42 43 44 45 44 42 42 45 45 45 45 46 45 45 44 43 44 45 46 47 48 48 49 48
47 44 46 55 49 54 50 45 45 47 48 49 50 49 47 47 42 39 44 47 47 46 46 48 49 48 45 47 47 48 48 49 47 47 47 46 46 48 49 50 52 54 49 50
50 44 54 59 59 61 58 50 50 53 56 58 58 55 51 50 49 48 47 43 44 46 48 50 52 52 49 49 49 49 48 48 49 50 51 52 54 54 53 55 54 47 49 50
Wind_Direction
245 249 253 256 260 266 272 275 277 278 278 281 283 287 288 290 293 291 291 294 297 296 296 301 303 303 302 304 302 302 302 300 293 286 282 278 273 268 262 260 257 253 251 249
250 256 261 266 270 272 273 274 278 281 283 286 290 287 285 288 289 294 293 302 304 305 303 307 317 323 317 314 315 319 314 308 302 294 289 280 273 264 258 255 254 251 251 251
258 261 263 266 271 275 279 282 282 284 287 286 272 286 288 289 292 296 304 306 311 303 300 305 310 327 329 328 330 319 327 325 313 302 293 283 273 263 253 247 247 247 248 248
265 272 278 282 284 286 285 281 284 273 265 280 289 290 286 292 292 299 315 327 339 332 351 358 16 19 16 4 358 351 343 339 328 322 316 298 279 262 249 242 240 240 240 241
273 273 273 277 282 283 279 248 264 264 281 300 295 290 296 283 271 342 60 63 41 37 36 27 6 360 356 357 360 3 359 350 345 340 343 336 308 266 250 237 237 236 236 238
249 252 226 185 239 263 281 292 293 286 299 300 300 303 221 122 107 113 89 45 28 19 14 6 356 349 346 350 354 358 357 7 359 355 359 357 339 260 254 235 241 240 234 233
123 124 150 168 188 272 296 292 278 280 290 293 181 126 115 126 113 79 43 28 12 359 349 344 343 342 341 343 347 348 354 2 8 6 7 10 3 287 239 233 235 243 240 233
156 179 218 240 268 279 293 293 298 294 280 231 189 153 156 112 71 12 5 349 344 339 335 332 335 338 340 341 342 345 349 356 2 6 14 21 22 12 225 223 230 226 233 227
50 268 279 276 295 322 321 327 328 308 283 221 222 244 252 269 311 327 325 325 325 326 329 329 332 335 339 341 342 346 348 352 360 4 10 23 32 35 37 218 231 218 224 214
75 62 50 31 5 352 353 343 334 327 306 240 234 265 287 301 308 314 318 316 319 323 324 328 332 334 340 343 343 345 349 351 353 3 12 22 35 40 45 61 166 162 220 215
48 36 28 28 17 9 1 355 355 359 351 294 289 293 300 301 305 309 308 312 317 321 327 329 333 337 341 346 348 349 350 352 355 359 9 23 31 45 51 65 79 103 133 147
22 18 16 6 1 349 345 343 338 332 325 316 311 314 310 308 308 306 314 320 325 330 331 333 333 337 339 341 344 348 352 356 356 1 7 14 28 34 48 58 64 79 120 177
337 330 332 334 329 328 328 330 330 327 318 312 315 321 308 321 312 314 318 322 324 326 326 326 327 332 334 335 338 343 346 351 358 1 6 12 15 25 37 58 68 75 84 126
310 311 311 313 313 313 316 313 309 312 310 308 317 316 300 310 312 314 319 321 319 321 322 321 325 330 331 334 334 334 338 343 349 353 357 4 9 13 17 24 35 43 47 43
298 297 300 301 304 302 303 304 305 306 305 304 298 307 295 304 309 311 315 317 315 316 317 319 322 325 326 330 332 334 336 339 340 341 344 346 348 353 1 4 5 4 358 349
298 292 290 290 290 297 305 300 300 297 298 299 297 301 298 300 303 305 305 311 308 314 316 319 319 319 323 328 336 344 350 355 359 357 355 357 359 360 354 344 337 334 332 328
291 290 290 298 286 291 295 293 293 292 292 291 293 295 295 296 299 300 301 311 310 313 316 319 321 322 326 331 345 352 354 357 360 358 357 356 356 354 354 355 354 351 343 335
293 292 291 294 293 292 296 291 289 292 294 296 307 301 306 303 305 303 302 314 309 311 310 304 299 306 315 323 330 330 334 338 343 345 347 343 340 340 337 334 331 328 326 323
292 292 295 298 298 300 298 290 297 297 294 298 300 298 296 294 299 303 297 299 295 299 298 287 288 293 293 292 299 300 304 307 311 316 320 318 319 320 323 320 315 312 311 310
288 291 293 295 291 295 309 302 292 289 293 287 292 293 286 290 291 299 299 290 289 290 288 285 282 285 286 288 294 297 301 303 304 302 300 300 301 302 307 311 307 302 298 297
285 286 289 290 291 297 291 295 293 287 283 284 284 288 288 288 292 293 291 288 286 287 285 286 289 290 289 290 292 293 294 294 300 296 300 294 293 297 298 299 302 304 294 293
283 286 287 287 291 297 293 289 286 287 288 289 287 287 285 280 281 283 287 289 291 293 293 293 292 291 288 288 290 292 291 292 291 289 290 293 294 297 297 295 297 299 297 295
284 284 284 289 290 293 287 288 294 294 291 290 289 285 282 282 284 284 284 283 286 287 286 282 281 280 282 285 284 285 285 288 289 288 288 287 288 290 290 292 293 295 294 294
285 291 293 288 291 293 286 291 293 290 293 297 298 296 293 290 279 278 280 282 283 284 286 287 288 286 283 286 288 287 287 288 286 286 286 287 287 288 288 290 291 289 291 293
292 295 291 288 293 286 288 290 290 289 290 292 295 296 296 298 300 298 283 276 277 280 283 285 287 287 284 284 285 285 285 286 285 285 286 287 287 288 288 287 288 291 289 290
291 292 289 286 286 288 290 290 285 284 286 287 288 289 291 290 289 290 289 288 285 282 279 278 278 280 280 281 282 283 283 284 284 285 284 285 290 290 288 288 291 291 291 290